Location: Austin
(30.3000°N, 97.7500°W)
Time: 02:32:44
(UTC-06:00)

Cosmos 1626 Rocket - Pass Details

Date: 20 November 2023
Orbit: 600 x 629 km, 82.5° (Epoch: 04 December)

Event Time Altitude Azimuth Distance (km) Brightness Sun altitude
Rises 18:16:33 0° 347° (NNW) 2,850 6.9 -9.8°
Reaches altitude 10° 18:18:49 10° 342° (NNW) 1,943 6.1 -10.3°
Maximum altitude 18:22:58 51° 267° (W) 759 4.5 -11.1°
Drops below altitude 10° 18:27:06 10° 191° (SSW) 1,934 6.5 -12.0°
Sets 18:29:21 0° 187° (S) 2,835 7.3 -12.5°
